Weather History for Mackinac Island, MI

Change the Weather History Date:

Friday, March 28, 2014

  Actual Average Record
Temperature  
Mean Temperature 29 °F -  
Max Temperature 33 °F 37 °F 60 °F (1998)
Min Temperature 24 °F 24 °F -1 °F (1974)
Degree Days  
Heating Degree Days 36    
Moisture  
Dew Point 30 °F    
Average Humidity 93    
Maximum Humidity 100    
Minimum Humidity 78    
Precipitation  
Precipitation 0.08 in - - ()
Sea Level Pressure  
Sea Level Pressure 29.80 in    
Wind  
Wind Speed 7 mph (NNW)    
Max Wind Speed 13 mph    
Max Gust Speed 20 mph    
Visibility 7 miles    
Events Fog , Snow    
Averages and records for this station are not official NWS values.
T = Trace of Precipitation, MM = Missing Value Source: NWS Daily Summary

Daily Weather History Graph

Daily Weather History Graph

Search for Another Location

Airport:

Trip Planner

Search our weather history database for the weather conditions in past years. The results will help you decide how hot, cold, wet, or windy it might be!

Date:

Astronomy

Mar. 28, 2014 Rise Set
Actual Time 7:26 AM EDT 8:01 PM EDT
Civil Twilight 6:56 AM EDT 8:31 PM EDT
Nautical Twilight 6:20 AM EDT 9:07 PM EDT
Astronomical Twilight 5:43 AM EDT 9:44 PM EDT
Moon 6:03 AM EDT (3/28) 5:51 PM EDT (3/28)
Length of Visible Light 13h 35m
Length of Day
12h 35m
Waning Crescent, 6% of the Moon is Illuminated
Mar 28
Waning Crescent
Mar 30
New
Apr 7
First Quarter
Apr 15
Full
Apr 22
Last Quarter

Hourly Weather History & Observations

Time (EDT) Temp. Windchill Dew Point Humidity Pressure Visibility Wind Dir Wind Speed Gust Speed Precip Events Conditions
12:15 AM 32.0 °F 27.5 °F 32.0 °F 100% 29.55 in 0.5 mi East 4.6 mph - N/A Snow Light Snow
12:36 AM 32.0 °F 27.5 °F 32.0 °F 100% 29.55 in 0.5 mi East 4.6 mph - N/A Snow Light Snow
12:56 AM 32.0 °F 25.6 °F 32.0 °F 100% 29.52 in 0.2 mi East 6.9 mph - N/A Snow Light Snow
1:15 AM 32.0 °F 27.5 °F 32.0 °F 100% 29.51 in 0.5 mi East 4.6 mph - 0.01 in Snow Light Snow
1:36 AM 32.0 °F 25.6 °F 32.0 °F 100% 29.51 in 0.2 mi East 6.9 mph - 0.01 in Fog Fog
1:56 AM 32.0 °F 25.6 °F 32.0 °F 100% 29.50 in 0.5 mi East 6.9 mph - 0.01 in Fog Fog
2:15 AM 32.0 °F 24.8 °F 32.0 °F 100% 29.50 in 0.5 mi East 8.1 mph - 0.01 in   Overcast
2:36 AM 32.0 °F 27.5 °F 32.0 °F 100% 29.49 in 0.5 mi East 4.6 mph - 0.02 in Snow Light Snow
2:56 AM 32.0 °F 27.5 °F 32.0 °F 100% 29.49 in 0.5 mi ESE 4.6 mph - 0.03 in Snow Light Snow
3:15 AM 32.0 °F 24.8 °F 32.0 °F 100% 29.47 in 0.5 mi East 8.1 mph - 0.01 in Snow Light Snow
3:36 AM 32.0 °F - 32.0 °F 100% 29.47 in 0.5 mi Calm Calm - 0.02 in Snow Light Snow
3:56 AM 32.0 °F 28.7 °F 32.0 °F 100% 29.47 in 0.5 mi East 3.5 mph - 0.03 in Snow Light Snow
4:15 AM 32.0 °F 27.5 °F 32.0 °F 100% 29.47 in 0.5 mi ENE 4.6 mph - 0.01 in   Overcast
4:36 AM 32.0 °F - 32.0 °F 100% 29.48 in 0.5 mi Calm Calm - 0.01 in Fog Fog
4:56 AM 32.0 °F 27.5 °F 32.0 °F 100% 29.48 in 0.2 mi NE 4.6 mph - 0.01 in Snow Light Snow
5:15 AM 32.0 °F 25.6 °F 32.0 °F 100% 29.48 in 0.5 mi NNE 6.9 mph - N/A Snow Light Snow
5:36 AM 32.0 °F 26.4 °F 32.0 °F 100% 29.49 in 0.5 mi North 5.8 mph - N/A Snow Light Snow
5:56 AM 32.0 °F 25.6 °F 32.0 °F 100% 29.50 in 1.0 mi North 6.9 mph - N/A Snow Light Snow
6:15 AM 32.0 °F 24.8 °F 32.0 °F 100% 29.51 in 1.2 mi North 8.1 mph - N/A Snow Light Snow
6:36 AM 32.0 °F 24.8 °F 32.0 °F 100% 29.52 in 2.0 mi North 8.1 mph - N/A Snow Light Snow
6:56 AM 32.0 °F 24.8 °F 32.0 °F 100% 29.53 in 2.5 mi North 8.1 mph - N/A Snow Light Snow
7:15 AM 32.0 °F 25.6 °F 32.0 °F 100% 29.55 in 4.0 mi North 6.9 mph - N/A Snow Light Snow
7:36 AM 32.0 °F 24.8 °F 32.0 °F 100% 29.56 in 2.5 mi NNW 8.1 mph - N/A Snow Light Snow
7:56 AM 32.0 °F 24.8 °F 32.0 °F 100% 29.57 in 2.0 mi NNW 8.1 mph - N/A Snow Light Snow
8:15 AM 32.0 °F 24.8 °F 32.0 °F 100% 29.59 in 5.0 mi NNW 8.1 mph - N/A   Overcast
8:36 AM 32.0 °F 23.6 °F 32.0 °F 100% 29.60 in 1.8 mi NNW 10.4 mph - N/A Snow Light Snow
8:56 AM 32.0 °F 24.8 °F 32.0 °F 100% 29.62 in 4.0 mi NNW 8.1 mph - N/A   Overcast
9:15 AM 32.0 °F 24.8 °F 32.0 °F 100% 29.64 in 10.0 mi NNW 8.1 mph - N/A   Overcast
9:36 AM 32.5 °F 23.7 °F 32.5 °F 100% 29.65 in 10.0 mi NW 11.5 mph 16.1 mph N/A   Overcast
9:56 AM 32.9 °F 23.7 °F 32.9 °F 100% 29.66 in 10.0 mi NNW 12.7 mph 18.4 mph N/A   Overcast
10:15 AM 33.1 °F 25.5 °F 33.1 °F 100% 29.68 in 10.0 mi NNW 9.2 mph - N/A   Overcast
10:36 AM 33.8 °F 25.8 °F 33.8 °F 100% 29.70 in 10.0 mi NNW 10.4 mph 16.1 mph N/A   Overcast
10:55 AM 33.4 °F 25.9 °F 33.4 °F 100% 29.72 in 10.0 mi NNW 9.2 mph 16.1 mph N/A   Overcast
11:16 AM 33.3 °F 24.6 °F 32.9 °F 99% 29.73 in 10.0 mi NNW 11.5 mph 17.3 mph N/A   Overcast
11:36 AM 33.1 °F 24.4 °F 32.4 °F 97% 29.75 in 10.0 mi NNW 11.5 mph 16.1 mph N/A   Overcast
11:55 AM 33.3 °F 24.6 °F 32.4 °F 96% 29.77 in 10.0 mi NW 11.5 mph 19.6 mph N/A   Overcast
12:16 PM 33.4 °F 24.8 °F 32.0 °F 94% 29.79 in 10.0 mi NW 11.5 mph 17.3 mph N/A   Overcast
12:36 PM 33.4 °F 24.8 °F 32.0 °F 94% 29.80 in 10.0 mi NW 11.5 mph 18.4 mph N/A   Overcast
12:55 PM 33.3 °F 25.1 °F 31.5 °F 93% 29.82 in 10.0 mi NW 10.4 mph - N/A   Overcast
1:16 PM 33.6 °F 25.6 °F 31.3 °F 91% 29.84 in 10.0 mi NW 10.4 mph 17.3 mph N/A   Overcast
1:35 PM 33.6 °F 26.2 °F 31.1 °F 90% 29.85 in 10.0 mi NW 9.2 mph 16.1 mph N/A   Overcast
1:56 PM 33.8 °F 26.4 °F 31.1 °F 90% 29.87 in 10.0 mi WNW 9.2 mph - N/A   Overcast
2:16 PM 33.3 °F 25.1 °F 31.1 °F 92% 29.88 in 10.0 mi NW 10.4 mph 17.3 mph N/A   Overcast
2:35 PM 32.5 °F 24.8 °F 30.2 °F 91% 29.89 in 10.0 mi NW 9.2 mph 17.3 mph N/A   Overcast
2:56 PM 32.4 °F 23.0 °F 30.2 °F 92% 29.91 in 10.0 mi NW 12.7 mph 17.3 mph N/A   Overcast
3:16 PM 32.5 °F 23.2 °F 30.2 °F 91% 29.92 in 10.0 mi NW 12.7 mph - N/A   Overcast
3:36 PM 33.1 °F 24.9 °F 30.2 °F 89% 29.93 in 10.0 mi NW 10.4 mph - N/A   Overcast
3:56 PM 33.1 °F 24.9 °F 29.3 °F 86% 29.95 in 10.0 mi NNW 10.4 mph - N/A   Overcast
4:16 PM 33.8 °F 25.8 °F 28.8 °F 82% 29.96 in 10.0 mi NNW 10.4 mph - N/A   Overcast
4:36 PM 33.8 °F 27.0 °F 28.4 °F 81% 29.98 in 10.0 mi NW 8.1 mph 17.3 mph N/A   Overcast
4:56 PM 33.3 °F 25.7 °F 28.4 °F 82% 30.00 in 10.0 mi NNW 9.2 mph 17.3 mph N/A   Overcast
5:16 PM 33.1 °F 24.4 °F 27.5 °F 80% 30.01 in 10.0 mi NNW 11.5 mph 17.3 mph N/A   Overcast
5:36 PM 32.9 °F 23.7 °F 27.1 °F 79% 30.02 in 10.0 mi NNW 12.7 mph 18.4 mph N/A   Overcast
5:56 PM 32.4 °F 23.0 °F 27.1 °F 81% 30.04 in 10.0 mi NNW 12.7 mph 16.1 mph N/A   Overcast
6:16 PM 32.0 °F 22.5 °F 26.6 °F 80% 30.06 in 10.0 mi NNW 12.7 mph 17.3 mph N/A   Overcast
6:36 PM 32.0 °F 23.0 °F 26.4 °F 80% 30.08 in 10.0 mi NNW 11.5 mph - N/A   Overcast
6:56 PM 31.8 °F 25.4 °F 26.6 °F 81% 30.09 in 10.0 mi NNW 6.9 mph - N/A   Overcast
7:16 PM 31.6 °F 23.7 °F 26.2 °F 80% 30.11 in 10.0 mi NW 9.2 mph - N/A   Overcast
7:36 PM 31.1 °F 23.7 °F 26.1 °F 82% 30.14 in 10.0 mi WNW 8.1 mph - N/A   Overcast
7:56 PM 30.2 °F 23.4 °F 25.7 °F 83% 30.15 in 10.0 mi WNW 6.9 mph - N/A   Overcast
8:16 PM 29.8 °F 21.5 °F 24.6 °F 81% 30.18 in 10.0 mi WNW 9.2 mph - N/A   Mostly Cloudy
8:36 PM 29.3 °F 21.5 °F 23.4 °F 78% 30.19 in 10.0 mi WNW 8.1 mph - N/A   Overcast
8:56 PM 28.8 °F 20.9 °F 23.4 °F 80% 30.20 in 10.0 mi WNW 8.1 mph - N/A   Scattered Clouds
9:16 PM 28.4 °F 20.4 °F 23.0 °F 80% 30.22 in 10.0 mi WNW 8.1 mph - N/A   Clear
9:36 PM 27.9 °F 20.6 °F 23.4 °F 83% 30.20 in 10.0 mi NW 6.9 mph - N/A   Clear
9:56 PM 27.5 °F 18.6 °F 23.4 °F 84% 30.22 in 10.0 mi NW 9.2 mph - N/A   Clear
10:16 PM 26.6 °F 18.2 °F 23.4 °F 88% 30.21 in 10.0 mi NNW 8.1 mph - N/A   Clear
10:36 PM 26.4 °F 18.9 °F 23.7 °F 90% 30.21 in 10.0 mi NW 6.9 mph - N/A   Clear
10:56 PM 25.7 °F 19.0 °F 23.5 °F 92% 30.22 in 10.0 mi NW 5.8 mph - N/A   Clear
11:16 PM 25.5 °F 19.9 °F 23.5 °F 92% 30.22 in 10.0 mi NNW 4.6 mph - N/A   Clear
11:36 PM 25.3 °F 18.5 °F 23.5 °F 93% 30.23 in 10.0 mi NNW 5.8 mph - N/A   Clear
11:56 PM 24.8 °F 17.9 °F 22.6 °F 91% 30.25 in 10.0 mi NW 5.8 mph - N/A   Clear